Retour au catalogue

COMSTAR 1

ActifCommunicationsGEO
NORAD 8838·PAYLOAD·🇺🇸 United States

Lancé May 13, 1976 depuis Cape Canaveral Space Force Station

Loading…

TLE

FraisSource: Space-Track

Époque: Sep 14, 2026, 07:03 UTC

1 08838U 76042A   26257.29379773  .00000040  00000-0  00000-0 0  9999
2 08838   7.7857 304.0577 0004434 336.4164 198.8247  0.99826123121464

Suivez COMSTAR 1 en temps réel avec AllMySat

Download on the App Store